{"data":{"norad_id":39120,"epoch":"2026-09-20T01:03:49.760352Z","epoch_age_seconds":61304,"freshness":"FRESH","line1":"1 39120U 13011A   26263.04432593 -.00000147  00000+0  00000+0 0  9991","line2":"2 39120   4.6921  52.4439 0002477 144.6123  81.0491  1.00271410 49481","mean_motion":1.0027141,"eccentricity":0.0002477,"inclination_deg":4.6921,"raan_deg":52.4439,"arg_perigee_deg":144.6123,"mean_anomaly_deg":81.0491,"bstar":0,"rev_number":4948,"period_min":1436.1022748159,"perigee_km":35776.255857485,"apogee_km":35797.144317778,"semimajor_km":42164.837087631,"source":"CELESTRAK","updated_at":"2026-09-20T09:00:35.180839Z"}}